TimeEST,TemperatureF,Dew PointF,Humidity,Sea Level PressureIn,VisibilityMPH,Wind Direction,Wind SpeedMPH,Gust SpeedMPH,PrecipitationIn,Events,Conditions,WindDirDegrees,DateUTC
12:53 AM,41.0,21.0,45,30.10,10.0,ENE,3.5,-,N/A,,Mostly Cloudy,60,2013-11-08 05:53:00
1:53 AM,42.1,23.0,47,30.09,10.0,West,8.1,-,N/A,,Clear,280,2013-11-08 06:53:00
2:53 AM,42.1,23.0,47,30.09,10.0,WNW,12.7,-,N/A,,Clear,290,2013-11-08 07:53:00
3:53 AM,41.0,24.1,51,30.09,10.0,West,12.7,-,N/A,,Clear,260,2013-11-08 08:53:00
4:53 AM,39.9,24.1,53,30.11,10.0,West,13.8,-,N/A,,Clear,260,2013-11-08 09:53:00
5:53 AM,42.1,24.1,49,30.12,10.0,West,12.7,-,N/A,,Clear,260,2013-11-08 10:53:00
6:53 AM,42.1,25.0,51,30.14,10.0,WNW,10.4,-,N/A,,Clear,290,2013-11-08 11:53:00
7:53 AM,42.1,25.0,51,30.17,10.0,WNW,11.5,-,N/A,,Clear,290,2013-11-08 12:53:00
8:53 AM,44.1,24.1,45,30.19,10.0,NW,17.3,24.2,N/A,,Clear,310,2013-11-08 13:53:00
9:53 AM,46.0,24.1,42,30.20,10.0,WNW,16.1,23.0,N/A,,Partly Cloudy,300,2013-11-08 14:53:00
10:53 AM,46.0,21.0,37,30.21,10.0,NW,21.9,36.8,N/A,,Partly Cloudy,320,2013-11-08 15:53:00
11:53 AM,46.9,19.9,34,30.22,10.0,NW,18.4,29.9,N/A,,Mostly Cloudy,320,2013-11-08 16:53:00
12:53 PM,46.9,19.9,34,30.22,10.0,NW,17.3,27.6,N/A,,Mostly Cloudy,310,2013-11-08 17:53:00
1:53 PM,48.9,19.9,32,30.21,10.0,NNW,13.8,21.9,N/A,,Clear,330,2013-11-08 18:53:00
2:53 PM,48.0,19.9,33,30.22,10.0,NW,15.0,24.2,N/A,,Clear,310,2013-11-08 19:53:00
3:53 PM,46.9,19.0,33,30.24,10.0,West,16.1,23.0,N/A,,Scattered Clouds,280,2013-11-08 20:53:00
4:53 PM,45.0,19.9,37,30.25,10.0,NNW,12.7,-,N/A,,Mostly Cloudy,330,2013-11-08 21:53:00
5:53 PM,43.0,21.0,42,30.27,10.0,NW,5.8,-,N/A,,Clear,320,2013-11-08 22:53:00
6:53 PM,42.1,19.9,41,30.29,10.0,NW,6.9,-,N/A,,Clear,310,2013-11-08 23:53:00
7:53 PM,39.9,21.0,47,30.30,10.0,WNW,3.5,-,N/A,,Clear,300,2013-11-09 00:53:00
8:53 PM,39.0,21.0,49,30.31,10.0,NW,4.6,-,N/A,,Clear,310,2013-11-09 01:53:00
9:53 PM,33.1,21.9,64,30.32,10.0,SSW,3.5,-,N/A,,Clear,200,2013-11-09 02:53:00
10:53 PM,30.0,23.0,75,30.32,10.0,Calm,Calm,-,N/A,,Clear,0,2013-11-09 03:53:00
11:53 PM,30.9,21.9,69,30.32,10.0,SSW,3.5,-,N/A,,Clear,210,2013-11-09 04:53:00